Location: Tel Aviv
(32.0670°N, 34.7670°E)
Time: 10:14:02
(UTC+03:00)

Explorer 11/Cluster Stage 4 - Pass Details

Date: 19 September 2024
Orbit: 464 x 1208 km, 28.8° (Epoch: 06 October)

Event Time Altitude Azimuth Distance (km) Brightness Sun altitude
Rises 12:36:52 0° 260° (W) 4,054 10.3 59.1°
Reaches altitude 10° 12:42:34 10° 228° (SW) 3,137 10.1 59.1°
Maximum altitude 12:44:31 11° 214° (SW) 3,059 10.2 59.1°
Drops below altitude 10° 12:46:27 10° 199° (SSW) 3,127 10.3 59.0°
Sets 12:52:07 0° 167° (SSE) 4,012 10.6 58.9°
